Location: Glencliff
(36.1226°N, 86.7183°W)
Time: 09:38:11
(UTC+00:00)

Cosmos 2322 Rocket - Pass Details

Date: 25 August 2019
Orbit: 834 x 849 km, 71.0° (Epoch: 20 October)

Event Time Altitude Azimuth Distance (km) Brightness Sun altitude
Rises 03:53:49 0° 346° (NNW) 3,392 6.2 -35.7°
Reaches altitude 10° 03:56:28 10° 355° (N) 2,453 5.2 -36.0°
Enters shadow 03:59:00 24° 13° (NNE) 1,671 4.0 -36.3°
